CW2433 Weather Reports


Display with metric or nautical units.
time (UTC)temp
F
wind
direction
speed
MPH
gust
MPH
rain 1hr
in
rain 24hr
in
rain mn
in
humidity
%
barometer
mb
20201204013023 32 219 0.0 0.0 0.00 0.00 0.00 64 1021.7
20201204012523 32 219 0.0 0.0 0.00 0.00 0.00 64 1021.8
20201204012023 32 219 0.0 0.0 0.00 0.00 0.00 64 1021.9
20201204011520 33 219 0.0 0.0 0.00 0.00 0.00 63 1021.8
20201204011028 33 219 0.0 0.0 0.00 0.00 0.00 62 1021.8
20201204010513 33 219 0.0 0.0 0.00 0.00 0.00 60 1021.9
20201204010035 34 219 0.0 0.0 0.00 0.00 0.00 59 1021.9
20201204005521 34 219 0.0 0.0 0.00 0.00 0.00 58 1021.9
20201204005017 34 219 0.0 0.0 0.00 0.00 0.00 58 1021.9
20201204004514 34 219 0.0 0.0 0.00 0.00 0.00 57 1021.9
20201204004021 35 219 0.0 0.0 0.00 0.00 0.00 57 1021.9
20201204003515 35 219 0.0 0.0 0.00 0.00 0.00 56 1021.9
20201204003031 35 219 0.0 0.0 0.00 0.00 0.00 56 1021.9
20201204002518 35 219 0.0 0.0 0.00 0.00 0.00 56 1021.9
20201204002030 35 219 0.0 0.0 0.00 0.00 0.00 56 1021.9
20201204001522 35 219 0.0 0.0 0.00 0.00 0.00 55 1021.9
20201204001026 36 219 0.0 0.0 0.00 0.00 0.00 54 1021.9
20201204000524 36 219 0.0 0.0 0.00 0.00 0.00 53 1022.0
20201204000027 37 219 0.0 0.0 0.00 0.00 0.00 52 1022.1
20201203235525 37 219 0.0 0.0 0.00 0.00 0.00 51 1022.2
20201203235021 37 219 0.0 0.0 0.00 0.00 0.00 51 1022.1
20201203234514 38 219 0.0 0.0 0.00 0.00 0.00 51 1022.0
20201203234017 38 219 0.0 0.0 0.00 0.00 0.00 50 1022.0
20201203233522 38 219 0.0 0.0 0.00 0.00 0.00 49 1022.1
20201203233027 38 219 0.0 0.0 0.00 0.00 0.00 48 1022.0
20201203232521 39 219 0.0 0.0 0.00 0.00 0.00 48 1022.0
20201203232026 39 219 0.0 0.0 0.00 0.00 0.00 47 1022.2
20201203231518 39 219 0.0 0.0 0.00 0.00 0.00 47 1022.2
20201203231032 40 219 0.0 0.0 0.00 0.00 0.00 46 1022.2
20201203230517 40 219 0.0 0.0 0.00 0.00 0.00 45 1021.9
20201203230023 40 220 0.0 0.0 0.00 0.00 0.00 45 1021.9
20201203225523 41 220 0.0 0.0 0.00 0.00 0.00 44 1021.8
20201203225022 41 220 0.0 0.0 0.00 0.00 0.00 44 1021.9
20201203224521 41 220 0.0 0.0 0.00 0.00 0.00 42 1021.9
20201203224048 42 219 0.0 0.0 0.00 0.00 0.00 42 1022.0
20201203223513 42 219 0.0 0.0 0.00 0.00 0.00 41 1022.0
20201203223021 43 221 0.0 0.0 0.00 0.00 0.00 41 1021.9
20201203222516 43 219 0.0 0.0 0.00 0.00 0.00 41 1021.9
20201203222020 43 219 0.0 0.0 0.00 0.00 0.00 40 1022.0
20201203221517 43 218 0.0 0.0 0.00 0.00 0.00 40 1022.0
20201203221019 44 211 0.0 2.0 0.00 0.00 0.00 39 1022.0
20201203220513 44 248 0.0 2.0 0.00 0.00 0.00 39 1022.0
20201203220024 44 268 0.0 0.0 0.00 0.00 0.00 39 1022.0
20201203215519 45 243 0.0 0.0 0.00 0.00 0.00 38 1022.0
20201203215019 44 253 0.0 0.0 0.00 0.00 0.00 39 1022.0
20201203214516 44 258 0.0 0.0 0.00 0.00 0.00 40 1022.1
20201203214021 44 232 0.0 0.0 0.00 0.00 0.00 40 1022.1
20201203213517 44 250 0.0 0.0 0.00 0.00 0.00 41 1022.1
20201203213037 44 248 0.0 0.0 0.00 0.00 0.00 40 1022.2
20201203212521 45 250 0.0 0.0 0.00 0.00 0.00 41 1022.4
20201203212029 45 237 0.0 0.0 0.00 0.00 0.00 41 1022.3
20201203211522 45 227 0.0 0.0 0.00 0.00 0.00 41 1022.3
20201203211022 46 243 0.0 0.0 0.00 0.00 0.00 40 1022.4
20201203210520 46 248 0.0 0.0 0.00 0.00 0.00 40 1022.5
20201203210022 46 252 0.0 0.0 0.00 0.00 0.00 41 1022.5
20201203205520 46 267 0.0 0.0 0.00 0.00 0.00 40 1022.4
20201203205018 46 281 0.0 0.0 0.00 0.00 0.00 41 1022.5
20201203204518 46 252 0.0 0.0 0.00 0.00 0.00 41 1022.5
20201203204022 46 235 0.0 0.0 0.00 0.00 0.00 41 1022.5
20201203203526 45 255 0.0 1.0 0.00 0.00 0.00 41 1022.6
20201203203025 45 262 0.0 1.0 0.00 0.00 0.00 41 1022.7
20201203202515 45 253 0.0 1.0 0.00 0.00 0.00 42 1022.8
20201203202022 45 259 0.0 0.0 0.00 0.00 0.00 44 1022.9
20201203201512 45 276 0.0 0.0 0.00 0.00 0.00 46 1022.9
20201203201022 45 257 0.0 0.0 0.00 0.00 0.00 48 1023.0
20201203200520 45 262 0.0 0.0 0.00 0.00 0.00 48 1023.0
20201203200029 44 284 0.0 0.0 0.00 0.00 0.00 49 1022.9
20201203195513 44 275 0.0 2.0 0.00 0.00 0.00 49 1022.9
20201203195021 44 238 0.0 2.0 0.00 0.00 0.00 50 1023.2
20201203194525 44 287 0.0 1.0 0.00 0.00 0.00 52 1023.3
20201203194022 43 292 0.0 1.0 0.00 0.00 0.00 52 1023.5
20201203193517 43 259 0.0 1.0 0.00 0.00 0.00 52 1023.5
20201203193021 43 250 0.0 0.0 0.00 0.00 0.00 51 1023.6
20201203192513 44 257 0.0 0.0 0.00 0.00 0.00 51 1023.7
20201203192023 44 214 0.0 0.0 0.00 0.00 0.00 53 1023.8
20201203191520 44 248 0.0 0.0 0.00 0.00 0.00 52 1023.9
20201203191021 44 202 0.0 0.0 0.00 0.00 0.00 52 1024.1
20201203190513 43 228 0.0 0.0 0.00 0.00 0.00 54 1024.1
20201203190036 43 266 0.0 0.0 0.00 0.00 0.00 53 1024.1
20201203185511 43 244 0.0 0.0 0.00 0.00 0.00 53 1024.3
20201203185026 43 280 0.0 0.0 0.00 0.00 0.00 54 1024.4
20201203184513 42 274 0.0 0.0 0.00 0.00 0.00 53 1024.5
20201203184011 43 256 0.0 0.0 0.00 0.00 0.00 54 1024.5
20201203183517 43 253 0.0 0.0 0.00 0.00 0.00 54 1024.5
20201203183012 43 273 0.0 0.0 0.00 0.00 0.00 54 1024.6
20201203182516 42 262 0.0 0.0 0.00 0.00 0.00 54 1024.7
20201203182012 43 255 0.0 0.0 0.00 0.00 0.00 54 1024.8
20201203181523 42 213 0.0 0.0 0.00 0.00 0.00 56 1024.9
20201203181021 42 261 0.0 0.0 0.00 0.00 0.00 55 1025.0
20201203180513 42 260 0.0 0.0 0.00 0.00 0.00 56 1025.1
20201203180025 42 249 0.0 0.0 0.00 0.00 0.00 56 1025.1
20201203175518 42 219 0.0 0.0 0.00 0.00 0.00 56 1025.2
20201203175024 42 218 0.0 0.0 0.00 0.00 0.00 57 1025.4
20201203174513 42 213 0.0 0.0 0.00 0.00 0.00 59 1025.5
20201203174025 41 211 0.0 0.0 0.00 0.00 0.00 59 1025.7
20201203173529 41 212 0.0 0.0 0.00 0.00 0.00 61 1025.7
20201203173023 41 206 0.0 0.0 0.00 0.00 0.00 61 1026.0
20201203172513 40 206 0.0 0.0 0.00 0.00 0.00 62 1026.1
20201203172034 40 187 0.0 0.0 0.00 0.00 0.00 62 1026.2
20201203171522 39 180 0.0 0.0 0.00 0.00 0.00 64 1026.3
20201203171019 39 220 0.0 0.0 0.00 0.00 0.00 64 1026.4
20201203170520 39 223 0.0 0.0 0.00 0.00 0.00 65 1026.4
20201203170036 38 252 0.0 0.0 0.00 0.00 0.00 65 1026.5
20201203165518 37 242 0.0 0.0 0.00 0.00 0.00 68 1026.9
20201203165020 37 267 0.0 0.0 0.00 0.00 0.00 68 1027.0
20201203164519 36 266 0.0 0.0 0.00 0.00 0.00 69 1027.1
20201203164027 36 259 0.0 0.0 0.00 0.00 0.00 71 1027.3
20201203163524 35 260 0.0 0.0 0.00 0.00 0.00 72 1027.4
20201203163032 35 240 0.0 0.0 0.00 0.00 0.00 73 1027.4
20201203162520 35 234 0.0 0.0 0.00 0.00 0.00 73 1027.4
20201203162015 35 225 0.0 0.0 0.00 0.00 0.00 74 1027.4
20201203161518 35 224 0.0 0.0 0.00 0.00 0.00 76 1027.5
20201203161022 34 227 0.0 0.0 0.00 0.00 0.00 77 1027.5
20201203160519 34 227 0.0 0.0 0.00 0.00 0.00 79 1027.5
20201203160028 33 237 0.0 0.0 0.00 0.00 0.00 79 1027.5
20201203155527 33 237 0.0 0.0 0.00 0.00 0.00 81 1027.6
20201203155014 32 236 0.0 0.0 0.00 0.00 0.00 83 1027.6
20201203154519 32 236 0.0 0.0 0.00 0.00 0.00 84 1027.6
20201203154021 32 236 0.0 0.0 0.00 0.00 0.00 86 1027.6
20201203153515 31 236 0.0 0.0 0.00 0.00 0.00 87 1027.6
20201203153028 31 235 0.0 0.0 0.00 0.00 0.00 88 1027.6
20201203152514 30 236 0.0 0.0 0.00 0.00 0.00 89 1027.7
20201203152020 30 252 0.0 0.0 0.00 0.00 0.00 89 1027.7
20201203151511 29 254 0.0 0.0 0.00 0.00 0.00 89 1027.8
20201203151039 28 269 0.0 0.0 0.00 0.00 0.00 89 1027.9
20201203150520 27 345 0.0 0.0 0.00 0.00 0.00 89 1028.1
20201203150029 27 346 0.0 0.0 0.00 0.00 0.00 89 1028.3
20201203145519 26 346 0.0 0.0 0.00 0.00 0.00 89 1028.4
20201203145025 25 346 0.0 0.0 0.00 0.00 0.00 88 1028.4
20201203144522 24 346 0.0 0.0 0.00 0.00 0.00 88 1028.3
20201203144019 24 346 0.0 0.0 0.00 0.00 0.00 88 1028.4
20201203143523 24 346 0.0 0.0 0.00 0.00 0.00 88 1028.5
20201203143023 23 346 0.0 0.0 0.00 0.00 0.00 88 1028.5
20201203142518 22 346 0.0 0.0 0.00 0.00 0.00 87 1028.6
20201203142031 22 345 0.0 0.0 0.00 0.00 0.00 87 1028.7
20201203141528 22 346 0.0 0.0 0.00 0.00 0.00 87 1028.7
20201203141011 22 346 0.0 0.0 0.00 0.00 0.00 87 1028.9
20201203140516 21 346 0.0 0.0 0.00 0.00 0.00 87 1029.0
20201203140027 21 346 0.0 0.0 0.00 0.00 0.00 87 1028.7
20201203135510 21 346 0.0 0.0 0.00 0.00 0.00 87 1028.7
20201203135031 21 345 0.0 0.0 0.00 0.00 0.00 87 1028.6
20201203134512 21 345 0.0 0.0 0.00 0.00 0.00 86 1028.7
20201203134022 21 345 0.0 0.0 0.00 0.00 0.00 86 1028.6
20201203133525 21 346 0.0 0.0 0.00 0.00 0.00 86 1028.6
20201203133020 20 345 0.0 0.0 0.00 0.00 0.00 86 1028.6
20201203132518 20 345 0.0 0.0 0.00 0.00 0.00 86 1028.6
20201203132018 20 346 0.0 0.0 0.00 0.00 0.00 86 1028.8
20201203131519 20 345 0.0 0.0 0.00 0.00 0.00 86 1028.9
20201203131018 20 345 0.0 0.0 0.00 0.00 0.00 86 1028.9
20201203130518 20 345 0.0 0.0 0.00 0.00 0.00 86 1028.8
20201203130012 20 345 0.0 0.0 0.00 0.00 0.00 86 1028.7
20201203125518 20 345 0.0 0.0 0.00 0.00 0.00 85 1028.8
20201203125016 20 345 0.0 0.0 0.00 0.00 0.00 86 1028.8
20201203124526 20 345 0.0 0.0 0.00 0.00 0.00 86 1028.8
20201203124018 20 345 0.0 0.0 0.00 0.00 0.00 86 1028.8
20201203123518 20 345 0.0 0.0 0.00 0.00 0.00 85 1028.9
20201203123023 20 345 0.0 0.0 0.00 0.00 0.00 85 1028.8
20201203122523 20 345 0.0 0.0 0.00 0.00 0.00 85 1028.9
20201203122011 20 345 0.0 0.0 0.00 0.00 0.00 85 1028.8
20201203121520 20 345 0.0 0.0 0.00 0.00 0.00 85 1028.8
20201203121023 20 345 0.0 0.0 0.00 0.00 0.00 85 1028.9
20201203120520 20 345 0.0 0.0 0.00 0.00 0.00 85 1028.9
20201203120025 20 345 0.0 0.0 0.00 0.00 0.00 85 1028.8
20201203115511 20 345 0.0 0.0 0.00 0.00 0.00 85 1028.9
20201203115029 20 345 0.0 0.0 0.00 0.00 0.00 85 1028.9
20201203114519 20 345 0.0 0.0 0.00 0.00 0.00 85 1029.0
20201203114020 21 345 0.0 0.0 0.00 0.00 0.00 85 1029.0
20201203113517 21 345 0.0 0.0 0.00 0.00 0.00 85 1029.1
20201203113028 21 345 0.0 0.0 0.00 0.00 0.00 85 1029.1
20201203112523 21 345 0.0 0.0 0.00 0.00 0.00 85 1029.3
20201203112012 21 345 0.0 0.0 0.00 0.00 0.00 85 1029.3
20201203111521 21 345 0.0 0.0 0.00 0.00 0.00 85 1029.3
20201203111012 21 345 0.0 0.0 0.00 0.00 0.00 85 1029.3
20201203110516 21 345 0.0 0.0 0.00 0.00 0.00 85 1029.3
20201203110022 21 345 0.0 0.0 0.00 0.00 0.00 85 1029.2
20201203105514 21 345 0.0 0.0 0.00 0.00 0.00 85 1029.2
20201203105027 21 345 0.0 0.0 0.00 0.00 0.00 85 1029.2
20201203104535 21 345 0.0 0.0 0.00 0.00 0.00 85 1029.2
20201203104023 21 345 0.0 0.0 0.00 0.00 0.00 84 1029.2
20201203103517 21 345 0.0 0.0 0.00 0.00 0.00 84 1029.3
20201203103021 21 345 0.0 0.0 0.00 0.00 0.00 84 1029.4
20201203102517 21 345 0.0 0.0 0.00 0.00 0.00 84 1029.3
20201203102015 21 345 0.0 0.0 0.00 0.00 0.00 84 1029.4
20201203101513 21 345 0.0 0.0 0.00 0.00 0.00 84 1029.4
20201203101011 21 345 0.0 0.0 0.00 0.00 0.00 84 1029.2
20201203100512 21 345 0.0 0.0 0.00 0.00 0.00 84 1029.2
20201203100027 21 345 0.0 0.0 0.00 0.00 0.00 84 1029.1
20201203095519 21 345 0.0 0.0 0.00 0.00 0.00 84 1029.1
20201203095020 22 345 0.0 0.0 0.00 0.00 0.00 84 1029.2
20201203094523 22 345 0.0 0.0 0.00 0.00 0.00 84 1029.2
20201203094022 22 345 0.0 0.0 0.00 0.00 0.00 84 1029.1
20201203093517 22 345 0.0 0.0 0.00 0.00 0.00 84 1029.1
20201203093029 22 345 0.0 0.0 0.00 0.00 0.00 84 1029.1
20201203092510 22 345 0.0 0.0 0.00 0.00 0.00 84 1029.0
20201203092019 23 345 0.0 0.0 0.00 0.00 0.00 84 1029.0
20201203091520 23 345 0.0 0.0 0.00 0.00 0.00 84 1029.0
20201203091012 23 345 0.0 0.0 0.00 0.00 0.00 83 1029.0
20201203090518 23 345 0.0 0.0 0.00 0.00 0.00 84 1029.1
20201203090022 23 345 0.0 0.0 0.00 0.00 0.00 84 1029.4
20201203085513 23 345 0.0 0.0 0.00 0.00 0.00 83 1029.5
20201203085023 24 345 0.0 0.0 0.00 0.00 0.00 84 1029.5
20201203084511 24 345 0.0 0.0 0.00 0.00 0.00 84 1029.5
20201203084027 24 345 0.0 0.0 0.00 0.00 0.00 84 1029.6
20201203083512 24 345 0.0 0.0 0.00 0.00 0.00 84 1029.7
20201203083020 24 345 0.0 0.0 0.00 0.00 0.00 84 1029.9
20201203082515 25 345 0.0 0.0 0.00 0.00 0.00 83 1029.9
20201203082018 25 345 0.0 0.0 0.00 0.00 0.00 83 1030.0
20201203081518 25 345 0.0 0.0 0.00 0.00 0.00 84 1030.0
20201203081019 25 345 0.0 0.0 0.00 0.00 0.00 84 1030.0
20201203080514 25 345 0.0 0.0 0.00 0.00 0.00 84 1030.0
20201203080022 26 345 0.0 0.0 0.00 0.00 0.00 84 1030.0
20201203075521 26 345 0.0 0.0 0.00 0.00 0.00 84 1030.0
20201203075012 26 345 0.0 0.0 0.00 0.00 0.00 84 1030.0
20201203074516 26 345 0.0 0.0 0.00 0.00 0.00 84 1030.0
20201203074029 26 345 0.0 0.0 0.00 0.00 0.00 84 1029.9
20201203073516 27 344 0.0 0.0 0.00 0.00 0.00 84 1030.0
20201203073020 27 343 0.0 0.0 0.00 0.00 0.00 84 1029.9
20201203072513 27 356 0.0 0.0 0.00 0.00 0.00 84 1029.7
20201203072025 27 344 0.0 0.0 0.00 0.00 0.00 84 1029.8
20201203071555 27 353 0.0 0.0 0.00 0.00 0.00 84 1029.6
20201203071014 27 0 0.0 0.0 0.00 0.00 0.00 84 1029.6
20201203070516 28 329 0.0 0.0 0.00 0.00 0.00 84 1029.6
20201203070022 28 12 0.0 2.0 0.00 0.00 0.00 84 1029.8
20201203065514 28 355 0.0 2.0 0.00 0.00 0.00 84 1029.9
20201203065014 28 340 0.0 0.0 0.00 0.00 0.00 84 1029.9
20201203064521 28 0 0.0 0.0 0.00 0.00 0.00 84 1030.0
20201203064017 28 344 0.0 0.0 0.00 0.00 0.00 83 1030.0
20201203063524 28 356 0.0 0.0 0.00 0.00 0.00 83 1030.2
20201203063019 28 337 0.0 0.0 0.00 0.00 0.00 83 1030.3
20201203062519 28 331 0.0 0.0 0.00 0.00 0.00 83 1030.5
20201203062032 28 5 0.0 0.0 0.00 0.00 0.00 83 1030.6
20201203061518 28 328 0.0 0.0 0.00 0.00 0.00 83 1030.7
20201203061033 28 350 0.0 1.0 0.00 0.00 0.00 83 1030.7
20201203060519 28 328 0.0 1.0 0.00 0.00 0.00 82 1030.8
20201203060035 28 355 0.0 0.0 0.00 0.00 0.00 82 1031.1
20201203055527 28 345 0.0 2.0 0.00 0.00 0.00 82 1031.2
20201203055018 28 0 0.0 3.0 0.00 0.00 0.00 82 1031.3
20201203054527 28 340 0.0 3.0 0.00 0.00 0.00 82 1031.3
20201203054029 28 356 0.0 3.0 0.00 0.00 0.00 81 1031.4
20201203053513 28 352 0.0 3.0 0.00 0.00 0.00 81 1031.4
20201203053029 28 343 0.0 1.0 0.00 0.00 0.00 81 1031.4
20201203052521 28 341 0.0 1.0 0.00 0.00 0.00 81 1031.3
20201203052024 28 5 0.0 1.0 0.00 0.00 0.00 80 1031.2
20201203051520 28 357 0.0 1.0 0.00 0.00 0.00 80 1031.2
20201203051021 28 342 0.0 0.0 0.00 0.00 0.00 80 1031.2
20201203050519 28 357 0.0 0.0 0.00 0.00 0.00 79 1031.2
20201203050025 28 334 0.0 0.0 0.00 0.00 0.00 79 1031.3
20201203045518 28 337 0.0 0.0 0.00 0.00 0.00 79 1031.4
20201203045018 28 337 0.0 0.0 0.00 0.00 0.00 79 1031.3
20201203044524 28 339 0.0 3.0 0.00 0.00 0.00 79 1031.2
20201203044029 28 335 0.0 3.0 0.00 0.00 0.00 78 1031.1
20201203043542 28 353 0.0 2.0 0.00 0.00 0.00 78 1031.1
20201203043034 28 352 0.0 2.0 0.00 0.00 0.00 78 1031.2
20201203042519 28 340 0.0 2.0 0.00 0.00 0.00 78 1031.0
20201203042019 29 18 0.0 2.0 0.00 0.00 0.00 77 1031.1
20201203041519 29 346 0.0 0.0 0.00 0.00 0.00 77 1031.1
20201203041021 29 13 0.0 1.0 0.00 0.00 0.00 77 1031.3
20201203040522 29 344 0.0 1.0 0.00 0.00 0.00 76 1031.3
20201203040032 29 14 0.0 1.0 0.00 0.00 0.00 76 1031.5
20201203035514 29 335 0.0 6.0 0.00 0.00 0.00 76 1031.5
20201203035019 29 355 0.0 6.0 0.00 0.00 0.00 75 1031.5
20201203034520 29 345 0.0 6.0 0.00 0.00 0.00 75 1031.5
20201203034026 30 345 0.0 0.0 0.00 0.00 0.00 74 1031.5
20201203033519 30 334 0.0 0.0 0.00 0.00 0.00 74 1031.5
20201203033020 30 355 0.0 3.0 0.00 0.00 0.00 73 1031.5
20201203032523 30 359 0.0 3.0 0.00 0.00 0.00 72 1031.5
20201203032018 31 348 0.0 1.0 0.00 0.00 0.00 72 1031.5
20201203031517 31 352 0.0 1.0 0.00 0.00 0.00 71 1031.5
20201203031017 31 338 0.0 3.0 0.00 0.00 0.00 71 1031.4
20201203030517 31 22 0.0 3.0 0.00 0.00 0.00 70 1031.4
20201203030025 32 340 0.0 0.0 0.00 0.00 0.00 69 1031.6
20201203025518 32 345 0.0 0.0 0.00 0.00 0.00 68 1031.6
20201203025017 32 345 0.0 0.0 0.00 0.00 0.00 68 1031.6
20201203024519 33 339 0.0 1.0 0.00 0.00 0.00 67 1031.6
20201203024023 33 5 0.0 1.0 0.00 0.00 0.00 66 1031.5
20201203023512 34 343 0.0 0.0 0.00 0.00 0.00 65 1031.5
20201203023025 34 5 0.0 0.0 0.00 0.00 0.00 64 1031.5
20201203022513 34 354 0.0 0.0 0.00 0.00 0.00 64 1031.6
20201203022021 34 347 0.0 0.0 0.00 0.00 0.00 63 1031.5
20201203021516 34 345 0.0 0.0 0.00 0.00 0.00 63 1031.5
20201203021017 35 338 0.0 0.0 0.00 0.00 0.00 62 1031.4
20201203020516 35 353 0.0 0.0 0.00 0.00 0.00 62 1031.4
20201203020018 35 329 0.0 0.0 0.00 0.00 0.00 62 1031.5
20201203015524 35 328 0.0 0.0 0.00 0.00 0.00 61 1031.3
20201203015019 35 344 0.0 3.0 0.00 0.00 0.00 61 1031.2
20201203014524 35 354 0.0 3.0 0.00 0.00 0.00 61 1031.0
20201203014025 36 355 0.0 0.0 0.00 0.00 0.00 60 1031.0
20201203013519 36 1 0.0 1.0 0.00 0.00 0.00 59 1031.0